{"data":{"norad_id":63519,"intl_designator":"2025-071AC","name":"STARLINK-33787","alt_names":[],"object_type":"PAYLOAD","status":"ACTIVE","operator":null,"country":"US","launch_date":"2025-04-07","launch_site_code":"AFWTR","launch_vehicle":null,"mission":null,"orbit_class":"UNKNOWN","rcs_meters":null,"size_class":null,"mass_kg":null,"dimensions":null,"purposes":["comms"],"wikipedia_slug":null,"has_3d_model":false,"image_url":null,"decayed_at":null,"tle_current":{"epoch":"2026-05-25T05:02:53.407968Z","epoch_age_seconds":54114,"freshness":"FRESH","line1":"1 63519U 25071AC  26145.21034037  .00016219  00000+0  55833-3 0  9992","line2":"2 63519  53.1576 146.7168 0001048  88.1068 272.0053 15.30210854 64086","mean_motion":15.30210854,"eccentricity":0.0001048,"inclination_deg":53.1576,"raan_deg":146.7168,"arg_perigee_deg":88.1068,"mean_anomaly_deg":272.0053,"bstar":0.00055833,"rev_number":6408,"period_min":94.10467820404,"perigee_km":474.46443362281,"apogee_km":475.90088942386,"semimajor_km":6853.3196615233,"source":"CELESTRAK","updated_at":"2026-05-25T13:38:20.039635Z"}}}